Weather History for KPHX - September, 2013

Change the Weather History Date:

Friday, September 6, 2013

  Actual Average Record
Temperature  
Mean Temperature 100 °F 91 °F  
Max Temperature 111 °F 103 °F 111 °F (1986)
Min Temperature 89 °F 80 °F 63 °F (1921)
Degree Days  
Heating Degree Days 0 0  
Month to date heating degree days 0 0  
Since 1 July heating degree days 0 0  
Cooling Degree Days 35 26  
Month to date cooling degree days 196 161  
Year to date cooling degree days 4084 3630  
Growing Degree Days 50 (Base 50)    
Moisture  
Dew Point 55 °F    
Average Humidity 25    
Maximum Humidity 36    
Minimum Humidity 13    
Precipitation  
Precipitation T in 0.02 in 0.43 in (1927)
Month to date precipitation T 0.15  
Year to date precipitation 4.74 5.43  
Snow  
Snow 0.00 in - - ()
Month to date snowfall 0.0  
Year to date snowfall 0.0  
Since 1 July snowfall 0.0  
Snow Depth 0.00 in    
Sea Level Pressure  
Sea Level Pressure 29.77 in    
Wind  
Wind Speed 8 mph (SE)    
Max Wind Speed 24 mph    
Max Gust Speed 34 mph    
Visibility 10 miles    
Events Rain , Thunderstorm    
T = Trace of Precipitation, MM = Missing Value Source: NWS Daily Summary

Daily Weather History Graph

Daily Weather History Graph

Search for Another Location

Airport or City:

Trip Planner

Search our weather history database for the weather conditions in past years. The results will help you decide how hot, cold, wet, or windy it might be!

Date:

Astronomy

Sep. 06, 2013 Rise Set
Actual Time 6:05 AM MST 6:46 PM MST
Civil Twilight 5:40 AM MST 7:11 PM MST
Nautical Twilight 5:10 AM MST 7:40 PM MST
Astronomical Twilight 4:40 AM MST 8:11 PM MST
Moon 7:15 AM MST (9/6) 7:20 PM MST (9/6)
Length of Visible Light 13h 30m
Length of Day
12h 40m
New Moon, 2% of the Moon is Illuminated
Sep 6
New Moon
Sep 12
First Quarter
Sep 19
Full
Sep 26
Last Quarter
Oct 4
New

Hourly Weather History & Observations

Time (MST) Temp. Heat Index Dew Point Humidity Pressure Visibility Wind Dir Wind Speed Gust Speed Precip Events Conditions
12:51 AM 98.1 °F - 52.0 °F 21% 29.76 in 10.0 mi East 8.1 mph - N/A   Mostly Cloudy
1:51 AM 95.0 °F 92.7 °F 54.0 °F 25% 29.77 in 10.0 mi ESE 5.8 mph - N/A   Mostly Cloudy
2:51 AM 93.9 °F 91.7 °F 54.0 °F 26% 29.77 in 10.0 mi East 6.9 mph - N/A   Mostly Cloudy
3:51 AM 91.9 °F 90.3 °F 55.9 °F 30% 29.77 in 10.0 mi East 9.2 mph - N/A   Mostly Cloudy
4:51 AM 90.0 °F 88.6 °F 57.0 °F 33% 29.78 in 10.0 mi ESE 9.2 mph - N/A   Mostly Cloudy
5:51 AM 90.0 °F 88.6 °F 57.0 °F 33% 29.79 in 10.0 mi East 9.2 mph - N/A   Scattered Clouds
6:51 AM 90.0 °F 88.6 °F 57.0 °F 33% 29.80 in 10.0 mi ESE 6.9 mph - N/A   Partly Cloudy
7:51 AM 93.0 °F 91.4 °F 55.9 °F 29% 29.81 in 10.0 mi East 5.8 mph - N/A   Partly Cloudy
8:51 AM 96.1 °F 94.1 °F 55.0 °F 25% 29.82 in 10.0 mi ESE 4.6 mph - N/A   Partly Cloudy
9:51 AM 100.0 °F 98.3 °F 55.0 °F 22% 29.82 in 10.0 mi SE 4.6 mph - N/A   Partly Cloudy
10:51 AM 102.0 °F 100.1 °F 54.0 °F 20% 29.81 in 10.0 mi SSE 11.5 mph - N/A   Partly Cloudy
11:51 AM 105.1 °F - 52.0 °F 17% 29.79 in 10.0 mi South 9.2 mph - N/A   Partly Cloudy
12:51 PM 108.0 °F - 51.1 °F 15% 29.76 in 10.0 mi South 8.1 mph 18.4 mph N/A   Scattered Clouds
1:51 PM 108.0 °F - 48.9 °F 14% 29.73 in 10.0 mi Variable 4.6 mph 17.3 mph N/A   Scattered Clouds
2:51 PM 108.0 °F - 48.9 °F 14% 29.69 in 10.0 mi Variable 4.6 mph - N/A   Scattered Clouds
3:51 PM 109.0 °F - 48.0 °F 13% 29.67 in 10.0 mi SE 8.1 mph - N/A   Scattered Clouds
4:51 PM 105.1 °F 103.3 °F 53.1 °F 18% 29.69 in 10.0 mi SSW 11.5 mph - N/A   Mostly Cloudy
5:13 PM 102.9 °F 101.9 °F 55.9 °F 21% 29.76 in 10.0 mi WSW 13.8 mph - N/A Thunderstorm Thunderstorm
5:51 PM 96.1 °F 94.8 °F 57.0 °F 27% 29.73 in 10.0 mi Variable 3.5 mph 19.6 mph 0.00 in Rain , Thunderstorm Light Thunderstorms and Rain
6:13 PM 96.1 °F 94.5 °F 55.9 °F 26% 29.77 in 10.0 mi WNW 11.5 mph - 0.00 in   Mostly Cloudy
6:51 PM 98.1 °F 95.7 °F 53.1 °F 22% 29.70 in 10.0 mi West 5.8 mph - 0.00 in   Mostly Cloudy
7:51 PM 96.1 °F 95.2 °F 57.9 °F 28% 29.74 in 10.0 mi North 6.9 mph - N/A   Mostly Cloudy
8:51 PM 95.0 °F 94.4 °F 59.0 °F 30% 29.78 in 10.0 mi NNW 9.2 mph - N/A   Mostly Cloudy
9:51 PM 93.0 °F 92.3 °F 59.0 °F 32% 29.79 in 10.0 mi WSW 9.2 mph - N/A   Mostly Cloudy
10:51 PM 91.9 °F 91.5 °F 60.1 °F 34% 29.82 in 10.0 mi West 8.1 mph - N/A   Mostly Cloudy
11:51 PM 91.0 °F 90.5 °F 60.1 °F 35% 29.84 in 10.0 mi West 20.7 mph - N/A   Mostly Cloudy